Whidbey Island, WA

12:36 AM PDT on March 27, 2017 (GMT -0700)
Whidbey Island Naval Air Station

Weather History for KNUW - January, 2014

Change the Weather History Date:

Wednesday, January 15, 2014

  Actual Average Record
Temperature  
Mean Temperature 44 °F -  
Max Temperature 52 °F 44 °F 53 °F (2011)
Min Temperature 37 °F 35 °F 21 °F (2007)
Degree Days  
Heating Degree Days 20    
Moisture  
Dew Point 41 °F    
Average Humidity 86    
Maximum Humidity 90    
Minimum Humidity 74    
Precipitation  
Precipitation 0.00 in - - ()
Sea Level Pressure  
Sea Level Pressure 30.58 in    
Wind  
Wind Speed 5 mph (ESE)    
Max Wind Speed 10 mph    
Max Gust Speed -    
Visibility 5 miles    
Events Fog    
Averages and records for this station are not official NWS values.
T = Trace of Precipitation, MM = Missing Value Source: NWS Daily Summary

Daily Weather History Graph

Daily Weather History Graph

Search for Another Location

Airport or City:

Trip Planner

Search our weather history database for the weather conditions in past years. The results will help you decide how hot, cold, wet, or windy it might be!

Date:

Astronomy

Jan. 15, 2014 Rise Set
Actual Time 7:56 AM PST 4:43 PM PST
Civil Twilight 7:21 AM PST 5:19 PM PST
Nautical Twilight 6:42 AM PST 5:58 PM PST
Astronomical Twilight 6:05 AM PST 6:35 PM PST
Moon 4:51 PM PST (1/15) 7:12 AM PST (1/15)
Length of Visible Light 9h 57m
Length of Day
8h 47m
Full, 100% of the Moon is Illuminated
Jan 15
Full
Jan 15
Full
Jan 23
Last Quarter
Jan 30
New
Feb 6
First Quarter

Hourly Weather History & Observations

Time (PST) Temp. Windchill Dew Point Humidity Pressure Visibility Wind Dir Wind Speed Gust Speed Precip Events Conditions
12:56 AM 46.0 °F 43.1 °F 42.1 °F 86% 30.60 in 3.0 mi ESE 5.8 mph - N/A   Overcast
1:56 AM 46.9 °F - 44.1 °F 90% 30.63 in 3.0 mi Calm Calm - N/A   Overcast
2:56 AM 46.9 °F - 43.0 °F 86% 30.63 in 3.0 mi ESE 8.1 mph - N/A   Overcast
3:56 AM 46.0 °F 42.5 °F 42.1 °F 86% 30.62 in 3.0 mi SSE 6.9 mph - N/A   Mostly Cloudy
4:56 AM 44.1 °F 40.1 °F 39.9 °F 85% 30.59 in 3.0 mi SE 6.9 mph - N/A Fog Patches of Fog
5:46 AM 42.1 °F 37.1 °F 39.0 °F 89% 30.57 in 0.2 mi ESE 8.1 mph - N/A Fog Fog
5:56 AM 42.1 °F 36.6 °F 37.9 °F 85% 30.58 in 0.2 mi ESE 9.2 mph - N/A Fog Fog
6:56 AM 43.0 °F 38.2 °F 39.9 °F 89% 30.60 in 0.2 mi SE 8.1 mph - N/A Fog Fog
7:56 AM 44.1 °F 38.6 °F 39.9 °F 85% 30.61 in 0.2 mi ESE 10.4 mph - N/A Fog Fog
8:24 AM 43.0 °F 37.7 °F 39.9 °F 89% 30.59 in 0.2 mi SE 9.2 mph - N/A   Overcast
8:49 AM 45.0 °F 41.2 °F 41.0 °F 86% 30.60 in 7.0 mi SE 6.9 mph - N/A   Overcast
8:56 AM 45.0 °F 40.6 °F 42.1 °F 90% 30.61 in 7.0 mi SE 8.1 mph - N/A   Overcast
9:56 AM 46.0 °F 43.1 °F 43.0 °F 89% 30.63 in 8.0 mi SE 5.8 mph - N/A   Overcast
10:56 AM 48.0 °F - 43.0 °F 83% 30.64 in 10.0 mi Calm Calm - N/A   Overcast
11:56 AM 52.0 °F - 44.1 °F 74% 30.62 in 10.0 mi Calm Calm - N/A   Overcast
12:56 PM 48.0 °F - 43.0 °F 83% 30.59 in 10.0 mi NW 4.6 mph - N/A   Overcast
1:56 PM 48.9 °F - 44.1 °F 83% 30.57 in 10.0 mi NNW 6.9 mph - N/A   Overcast
2:56 PM 48.9 °F - 43.0 °F 80% 30.58 in 10.0 mi NW 3.5 mph - N/A   Mostly Cloudy
3:56 PM 48.9 °F - 43.0 °F 80% 30.58 in 10.0 mi WNW 3.5 mph - N/A   Scattered Clouds
4:56 PM 46.0 °F - 41.0 °F 83% 30.57 in 9.0 mi Calm Calm - N/A   Mostly Cloudy
5:56 PM 44.1 °F 42.5 °F 39.9 °F 85% 30.56 in 9.0 mi North 3.5 mph - N/A Fog Shallow Fog
6:45 PM 45.0 °F 41.2 °F 41.0 °F 86% 30.55 in 9.0 mi NW 6.9 mph - N/A Fog Shallow Fog
6:56 PM 45.0 °F 41.2 °F 41.0 °F 86% 30.56 in 0.5 mi NNW 6.9 mph - N/A   Mostly Cloudy
7:13 PM 45.0 °F 41.2 °F 41.0 °F 86% 30.55 in 0.5 mi WNW 6.9 mph - N/A   Mostly Cloudy
7:56 PM 44.1 °F 41.5 °F 39.9 °F 85% 30.56 in 8.0 mi North 4.6 mph - N/A Fog Patches of Fog
8:56 PM 41.0 °F - 37.0 °F 86% 30.56 in 7.0 mi Calm Calm - N/A Fog Patches of Fog
9:08 PM 43.0 °F 41.3 °F 39.0 °F 86% 30.55 in 0.5 mi NNW 3.5 mph - N/A Fog Fog
9:56 PM 41.0 °F 38.0 °F 37.9 °F 89% 30.57 in 0.5 mi ESE 4.6 mph - N/A Fog Fog
10:32 PM 39.0 °F - 36.0 °F 89% 30.55 in 0.1 mi Calm Calm - N/A Fog Fog
10:56 PM 37.9 °F 35.5 °F 35.1 °F 89% 30.56 in 0.1 mi SSE 3.5 mph - N/A Fog Fog
11:56 PM 39.0 °F - 35.1 °F 86% 30.55 in 0.1 mi Calm Calm - N/A   Scattered Clouds